Location: N�rnberg
(49.4471°N, 11.0632°E)
Time: 16:14:43
(UTC+02:00)

ZACube-1 - Visible Passes

Search period start: 19 April 2026 00:00
Search period end: 29 April 2026 00:00
Orbit: 534 x 596 km, 97.8° (Epoch: 19 April)

Date Brightness Start Highest point End Pass type
(mag) Time Alt. Az. Time Alt. Az. Time Alt. Az.
19 Apr ? 04:18:30 10° NNE 04:22:17 47° E 04:25:23 15° S visible
20 Apr ? 04:18:44 10° NNE 04:22:31 47° E 04:25:44 14° S visible
21 Apr ? 04:18:56 10° NNE 04:22:44 47° E 04:26:06 13° S visible
22 Apr ? 04:19:09 10° NNE 04:22:57 47° E 04:26:26 12° S visible
23 Apr ? 04:19:20 10° NNE 04:23:09 48° E 04:26:46 11° S visible
24 Apr ? 04:19:31 10° NNE 04:23:21 48° E 04:27:05 11° S visible
25 Apr ? 04:19:43 10° NNE 04:23:32 48° E 04:27:24 10° S visible
26 Apr ? 04:19:54 10° NNE 04:23:44 48° E 04:27:36 10° S visible
27 Apr ? 04:20:04 10° NNE 04:23:54 48° E 04:27:48 10° S visible
28 Apr ? 04:20:14 10° NNE 04:24:05 49° E 04:27:59 10° S visible
